Wind_Speed
33 33 32 31 27 19 8 10 8 10 10 9 9 8 5 2 4 4 7 2 2 3 4 9 22 21 16 7 6 6 5 5 7 6 5 6 5 4 6 5 4 2 2 2 1 4 7
32 32 29 29 30 28 25 16 15 11 9 10 10 9 4 3 3 8 7 3 2 4 4 10 19 17 14 8 3 5 4 5 7 7 5 3 5 7 8 4 1 2 3 4 2 3 4
32 28 28 29 29 24 21 18 18 15 13 11 10 9 6 4 2 5 4 4 4 4 7 23 23 6 13 7 4 8 11 11 9 8 8 7 8 3 6 6 2 1 3 3 4 2 1
29 26 24 23 24 23 22 21 19 18 16 14 11 9 4 2 2 4 4 5 7 8 8 19 25 6 8 8 6 14 13 14 14 15 15 10 12 10 3 6 3 0 2 2 4 2 2
26 27 22 21 23 23 21 19 19 17 17 16 14 9 5 1 5 7 7 9 10 7 7 19 18 8 10 2 4 7 7 10 10 11 10 7 5 4 3 3 3 2 2 3 2 3 3
27 26 22 21 21 20 19 18 17 16 16 13 12 10 9 8 8 9 14 12 12 15 14 17 10 8 2 2 3 5 6 6 5 2 3 4 4 3 3 1 2 1 2 3 7 2 7
28 25 23 20 19 19 18 17 16 15 15 14 12 13 15 12 20 25 27 19 7 4 17 5 13 25 10 6 4 7 4 3 2 4 3 4 4 6 6 6 6 4 1 5 7 4 9
29 28 26 23 20 19 18 17 16 15 15 13 12 10 14 15 18 19 10 6 5 6 15 20 22 22 10 3 6 8 8 3 4 5 1 4 6 5 8 5 4 1 3 5 8 2 9
27 28 27 25 22 21 20 19 20 19 16 15 9 11 13 11 23 23 23 12 6 4 6 9 10 10 5 7 5 7 7 2 5 5 7 6 6 6 1 3 0 2 3 3 5 13 9
25 26 24 22 21 21 21 21 22 22 19 14 15 7 13 16 16 17 7 5 6 1 5 10 9 8 5 3 5 4 6 3 3 5 4 6 4 3 1 1 4 1 4 3 6 9 5
22 22 22 21 21 19 19 20 21 20 18 17 17 17 9 5 21 3 3 4 7 3 6 9 6 6 6 5 3 4 5 2 4 4 2 2 4 3 3 1 5 4 0 6 8 6 6
22 22 21 20 19 20 19 20 20 18 16 16 16 12 16 15 9 6 3 7 0 1 7 2 5 3 3 4 3 2 3 4 2 3 3 3 0 2 2 1 4 4 5 1 2 1 3
23 24 25 24 23 22 22 19 16 15 12 11 13 14 12 9 2 6 9 1 2 7 1 3 2 1 3 3 2 2 3 4 2 1 3 1 2 1 2 1 1 3 3 2 2 3 3
21 23 24 25 26 25 24 22 19 14 9 5 9 10 7 3 4 6 3 1 11 2 5 2 2 4 3 2 2 2 0 3 3 4 3 2 2 5 6 3 3 1 3 2 4 3 6
19 21 23 25 27 27 26 26 23 20 12 4 3 3 5 6 2 2 2 7 4 2 4 6 3 1 2 3 1 2 4 3 4 2 4 4 0 2 4 1 3 2 2 2 4 3 5
19 20 21 23 26 29 30 28 25 23 13 6 1 2 7 4 4 1 5 7 3 1 4 1 3 3 3 3 3 4 5 2 2 0 1 1 3 1 1 2 4 3 2 3 4 5 5
18 19 21 22 23 26 30 31 27 21 14 8 2 1 14 3 5 6 6 5 5 4 1 1 3 3 4 2 1 1 1 2 3 4 3 2 1 1 3 6 3 4 3 6 3 3 3
21 19 20 22 22 24 26 29 30 20 17 6 2 3 12 2 3 2 3 4 3 4 2 2 1 2 2 3 1 0 0 2 5 5 1 1 2 4 3 2 1 3 5 5 3 2 4
21 21 20 21 22 24 25 26 30 22 16 3 2 1 5 1 4 3 2 3 1 2 2 4 3 2 2 3 2 3 2 1 7 6 3 4 2 4 3 3 3 6 7 6 2 1 8
20 21 21 20 21 23 25 26 29 25 14 3 2 2 3 4 2 4 5 2 3 0 1 0 2 2 4 3 4 3 4 4 8 7 6 5 5 8 6 7 1 8 9 10 10 6 7
16 19 21 21 20 21 24 27 28 27 13 2 3 2 1 2 4 3 2 1 3 3 1 2 2 3 3 4 3 4 4 3 5 5 4 4 5 8 15 20 17 20 19 17 18 19 11
15 17 19 20 20 20 22 25 27 29 12 5 1 2 2 3 2 1 2 1 0 1 2 1 2 1 2 3 4 3 4 4 2 5 5 1 4 4 8 16 13 13 15 16 18 21 20
13 15 17 19 20 20 20 22 25 26 14 6 4 2 2 1 3 2 2 2 2 1 3 1 1 1 3 4 7 7 6 5 2 2 8 3 3 3 6 7 14 12 7 11 8 8 15
12 13 16 17 19 20 20 19 20 21 20 6 4 2 2 3 2 2 5 4 5 4 2 2 4 3 3 4 9 7 7 10 9 10 6 4 2 2 6 11 4 2 1 4 10 11 13
11 11 14 16 17 18 18 17 16 16 15 10 6 2 2 2 2 4 6 4 2 2 4 4 4 1 1 2 3 5 3 3 3 3 9 10 5 4 4 4 14 1 2 1 3 5 4
13 11 10 13 16 16 16 16 15 14 13 9 7 5 2 3 4 1 4 5 3 3 2 3 1 0 1 1 2 3 3 2 1 4 5 7 8 4 1 4 5 2 2 4 3 3 3
13 12 10 10 13 14 15 14 14 12 12 11 2 5 1 2 1 3 3 3 5 2 2 1 2 3 2 3 4 4 3 1 3 3 5 5 4 11 11 8 9 7 5 4 4 3 0
13 13 12 9 10 13 13 13 12 11 11 10 4 3 1 2 5 6 4 3 2 2 3 4 2 3 2 5 4 3 4 3 3 2 5 8 7 6 5 7 9 8 5 6 3 0 2
13 13 13 12 10 11 12 12 11 10 9 9 2 4 3 4 4 5 10 14 6 3 2 3 3 2 3 3 3 1 4 3 4 5 3 5 7 3 8 6 1 9 8 2 1 3 7
Wind_Direction
4 359 354 351 344 334 37 63 53 40 34 41 43 48 66 101 174 190 181 66 75 193 93 139 164 138 117 75 69 37 102 113 132 134 98 116 123 121 127 115 114 105 159 244 230 292 280
11 10 16 24 52 68 73 47 49 42 39 46 51 44 69 88 325 181 136 131 82 172 155 144 150 128 109 87 13 74 121 127 106 114 98 111 129 116 98 94 165 119 241 259 264 245 231
16 26 34 49 58 56 45 46 51 46 49 46 37 44 74 101 84 152 136 145 108 138 122 138 129 123 74 82 59 92 115 93 99 117 99 89 126 115 135 129 126 174 263 209 187 184 197
28 35 38 52 44 43 49 48 50 51 46 44 39 51 74 153 216 198 203 167 139 149 145 137 134 126 75 87 87 95 94 83 90 91 94 91 101 93 55 124 123 20 228 256 134 343 130
38 32 43 40 44 50 49 52 55 53 56 52 49 66 60 14 255 230 187 152 136 160 135 130 117 133 120 168 119 79 101 101 90 85 80 83 68 79 140 142 127 39 274 303 298 43 324
35 31 38 40 47 49 49 47 50 50 48 46 40 46 45 24 8 210 170 142 122 113 103 92 116 83 176 148 75 79 78 90 73 79 93 52 61 103 78 116 162 156 298 288 277 0 309
36 31 35 37 47 47 46 44 39 35 35 30 42 58 40 57 69 101 132 123 97 44 31 52 92 96 107 142 83 58 28 43 42 57 84 40 79 78 90 66 89 109 216 289 293 328 307
41 37 36 37 43 41 39 34 30 29 36 37 55 63 46 74 94 113 86 88 77 140 71 61 80 82 94 92 111 35 19 62 38 83 117 101 87 103 108 102 104 86 316 305 290 309 314
41 45 40 37 38 33 32 34 29 27 31 42 68 58 67 93 97 101 87 74 115 71 79 40 45 59 39 55 53 23 11 43 56 61 49 85 106 145 139 131 113 242 256 342 312 325 288
36 39 39 35 36 32 31 27 25 28 36 47 55 72 105 95 75 108 74 62 9 313 88 11 12 28 21 54 67 358 13 0 58 68 70 77 126 163 172 229 205 310 199 287 313 341 316
27 28 26 23 21 27 21 20 19 27 38 50 58 74 121 137 133 115 156 314 327 239 76 338 7 335 31 43 83 48 358 351 68 85 273 105 153 175 234 208 188 23 267 297 303 287 312
22 21 22 16 13 8 12 14 13 16 35 52 71 79 99 117 96 115 311 321 195 84 68 38 333 19 57 43 40 344 12 53 29 77 47 89 133 255 6 121 222 325 304 289 135 248 252
21 22 22 20 17 16 10 9 9 7 20 44 65 76 101 116 105 306 337 291 61 51 260 84 95 109 82 40 69 20 25 55 48 155 36 284 174 150 214 207 192 237 282 314 239 221 285
15 15 14 16 19 18 15 12 16 15 1 27 49 57 68 62 284 317 339 27 65 50 82 167 180 97 96 354 75 34 172 73 86 23 83 21 181 182 164 264 348 36 1 327 296 296 308
14 9 9 8 11 16 17 17 18 15 4 346 341 38 35 8 60 74 77 56 70 110 132 151 160 102 82 75 44 346 44 39 38 18 40 356 314 116 209 264 292 103 265 41 281 236 270
7 8 5 4 8 11 14 16 17 19 7 357 62 42 14 68 101 144 80 88 92 93 121 174 59 4 67 39 25 19 22 23 52 194 324 71 305 166 109 180 227 267 43 242 212 300 293
10 7 8 4 5 8 9 11 14 15 18 8 30 60 1 21 23 55 73 85 115 169 196 128 112 111 93 92 39 67 55 149 216 176 220 270 47 155 229 204 190 168 219 220 274 239 288
11 10 10 7 6 8 8 8 7 10 9 25 30 53 352 336 53 40 76 128 173 173 183 139 127 92 105 154 123 165 30 277 187 185 146 35 328 280 259 140 321 268 259 233 269 213 254
11 11 8 7 11 12 13 11 7 1 8 13 74 324 341 14 92 74 78 66 351 160 169 159 146 205 176 165 164 220 214 197 189 200 194 160 191 293 188 148 191 224 199 218 210 274 241
9 7 9 8 9 13 11 12 11 2 358 8 107 54 33 54 30 109 133 131 133 108 83 70 104 156 168 172 220 200 221 198 193 203 179 181 210 226 247 271 232 240 227 215 214 235 262
2 6 4 9 8 12 12 10 10 9 357 19 14 91 33 52 50 51 358 130 151 182 214 222 164 230 195 179 198 229 225 217 207 209 189 229 259 234 257 270 271 266 262 246 228 235 250
346 360 3 3 7 7 9 11 11 12 10 51 62 146 143 106 142 126 341 99 258 36 245 190 268 156 252 261 272 263 227 228 254 166 189 232 283 314 287 280 273 263 253 243 242 247 251
345 349 357 1 2 5 7 9 14 18 33 57 15 43 289 88 146 203 176 167 137 216 149 133 55 313 262 273 312 290 270 283 327 219 201 214 267 305 273 320 301 275 253 215 215 228 229
351 338 343 355 360 1 4 9 14 20 28 48 48 321 280 148 217 194 183 196 201 189 218 238 183 193 168 243 259 247 243 247 237 229 225 219 220 261 292 312 275 49 295 246 246 267 228
346 344 333 340 354 359 359 3 10 17 22 35 26 10 326 272 202 200 213 227 217 233 243 248 225 237 117 332 281 297 229 212 168 210 225 221 231 268 275 290 286 229 132 163 249 307 254
339 340 332 327 338 349 357 356 360 8 14 21 26 24 352 310 231 161 171 189 223 217 231 242 289 202 250 224 221 251 275 340 239 161 68 166 225 236 228 272 272 86 174 195 201 229 188
325 329 326 321 321 334 348 352 350 354 4 5 355 17 31 290 214 184 225 208 163 171 236 246 191 188 261 203 222 226 240 226 249 230 173 155 185 222 236 253 272 248 179 153 246 50 100
313 317 312 309 306 315 331 344 345 344 350 3 320 341 108 255 265 204 220 178 148 236 213 134 199 174 170 216 223 205 225 207 249 232 201 197 193 201 200 222 255 150 128 209 12 328 256
303 304 301 298 298 297 310 326 337 337 339 349 323 330 304 230 272 234 238 240 234 243 229 208 314 166 207 200 226 206 223 202 221 268 204 239 218 223 215 226 118 186 240 195 289 288 294
Height
807 801 793 785 776 771 771 773 779 782 784 783 781 780 781 783 787 788 789 792 793 791 792 790 792 796 800 804 812 812 812 813 812 813 813 813 815 817 821 825 828 827 832 833 832 834 834
809 802 794 787 780 778 779 780 782 784 785 784 782 782 783 783 786 787 788 791 791 790 792 792 793 798 803 812 816 815 815 815 813 814 816 815 816 820 824 829 828 832 833 832 835 834 834
811 805 800 796 792 789 787 786 785 786 785 784 783 783 783 785 787 787 789 790 790 791 792 794 796 803 806 818 818 818 817 817 815 816 817 819 820 819 825 830 836 834 828 828 831 831 830
814 810 806 802 798 795 792 790 787 786 784 783 784 784 785 787 788 789 790 790 791 792 793 795 798 805 815 818 821 821 821 820 819 818 819 823 823 824 829 834 832 827 825 813 826 828 832
818 815 811 807 803 800 795 790 786 785 785 785 786 786 787 787 787 788 789 790 792 792 793 797 802 808 825 825 824 823 823 822 823 822 822 824 824 829 833 824 820 820 811 819 817 829 828
822 819 816 812 808 803 799 796 793 791 792 789 789 788 787 786 783 780 787 791 794 796 796 799 805 809 827 826 824 824 824 823 823 824 822 824 827 825 826 823 819 818 818 824 824 823 826
825 822 819 816 813 808 805 802 800 798 796 793 792 791 790 787 784 783 788 793 797 801 802 807 807 808 823 827 826 827 826 824 824 823 821 829 828 829 835 834 835 836 835 833 819 828 828
830 826 823 820 817 813 811 807 804 800 797 794 793 793 792 790 790 792 792 796 804 808 812 814 814 816 823 825 826 826 824 823 823 824 828 825 835 842 844 844 840 839 836 824 821 829 825
835 830 828 825 822 819 815 811 808 803 800 797 795 795 794 793 793 794 797 802 805 805 815 825 824 824 826 826 828 828 828 828 827 827 826 819 838 844 842 843 841 837 839 831 835 827 811
840 835 831 828 825 823 819 815 810 806 802 799 798 796 797 796 798 801 803 804 806 805 810 836 828 828 829 828 829 833 832 832 830 831 833 833 843 842 841 840 840 834 836 836 837 833 823
844 839 835 831 827 824 820 818 814 810 807 803 802 800 801 800 803 806 808 806 804 804 801 845 835 834 832 831 835 834 835 830 831 833 835 841 840 840 838 841 838 830 837 835 835 838 837
847 843 838 833 830 825 822 818 816 813 810 807 805 805 804 806 807 807 806 804 805 797 832 844 840 836 833 835 837 836 835 836 838 836 838 839 844 841 836 839 839 837 836 834 836 838 831
849 846 841 836 832 827 822 819 816 814 812 810 807 807 808 808 809 807 806 805 802 815 853 845 839 838 837 839 839 837 837 835 836 834 841 835 835 840 842 835 838 840 831 823 820 823 799
852 848 844 840 835 829 825 820 816 815 812 810 809 808 808 808 808 807 807 802 817 841 841 842 839 837 837 840 839 839 836 832 837 833 836 832 830 833 838 833 827 826 827 832 826 806 802
852 849 845 842 837 832 827 821 817 813 812 810 809 809 808 807 806 806 805 820 837 834 839 837 839 835 839 838 837 835 834 833 834 836 836 836 833 833 836 833 832 828 832 835 836 824 821
854 850 847 842 839 834 829 824 819 815 811 809 809 809 809 807 807 807 808 836 836 839 838 837 832 835 832 835 833 832 834 835 835 838 837 838 841 831 831 834 834 830 836 831 829 822 804
853 851 848 844 839 836 831 826 820 815 812 811 810 808 811 809 807 807 828 833 833 836 834 832 832 832 833 833 835 835 835 836 835 838 837 834 835 827 830 826 818 834 828 829 824 818 809
854 851 848 845 840 837 833 828 822 816 812 812 812 813 814 811 812 825 829 827 832 831 832 832 832 832 831 835 834 835 833 833 834 834 832 835 834 832 821 823 826 822 817 815 813 814 810
855 851 849 845 841 838 834 830 825 818 814 811 816 819 815 813 819 826 833 832 832 830 831 830 829 829 831 830 831 834 832 831 833 830 829 832 832 830 817 823 824 818 814 814 817 821 812
858 853 849 846 842 838 835 831 827 822 817 815 815 818 818 821 832 823 826 830 830 833 831 831 829 831 831 830 833 828 827 829 830 828 832 830 828 821 808 798 809 810 807 810 810 809 792
857 855 851 847 844 840 836 832 827 823 819 819 820 830 834 828 830 831 830 828 829 829 832 832 831 828 825 825 827 826 826 826 830 830 831 830 825 820 814 807 808 806 804 803 806 798 796
857 856 853 849 846 842 838 834 829 824 820 822 821 824 836 835 838 832 832 829 830 831 831 827 828 831 831 825 821 820 823 825 820 831 832 835 826 827 825 801 803 805 797 796 794 791 787
857 855 854 851 847 844 839 836 832 827 823 826 831 830 826 839 833 828 828 830 831 832 831 831 832 831 830 829 830 826 826 827 829 826 827 829 827 826 807 803 801 788 779 783 783 780 777
859 857 854 852 849 845 842 839 835 832 830 831 833 834 825 824 830 825 829 830 829 830 829 829 830 827 827 829 827 825 825 824 825 825 826 825 828 828 815 804 789 778 781 781 781 773 772
857 856 855 852 850 847 844 841 838 835 834 833 834 835 832 823 827 830 831 828 829 831 829 827 825 825 828 826 818 812 807 814 818 826 827 828 824 820 818 809 781 772 781 781 779 765 766
857 855 854 853 850 848 844 842 840 837 835 834 834 834 836 832 823 824 824 826 823 824 827 827 828 828 828 823 819 813 803 807 805 816 829 829 826 825 823 815 784 769 775 777 777 763 762
855 854 852 851 850 848 845 843 841 839 836 836 835 835 835 833 828 829 824 821 823 825 820 825 825 827 828 818 814 811 807 817 803 805 813 819 826 821 813 812 781 763 772 779 770 757 760
852 851 851 848 848 848 845 843 842 840 838 836 836 835 835 834 826 826 825 825 827 824 814 821 822 824 825 817 812 806 809 805 811 803 800 795 799 803 805 804 789 766 777 768 754 759 761
849 847 848 847 846 845 844 842 841 840 838 837 836 835 835 834 824 822 820 820 821 821 820 823 816 815 811 810 815 812 808 814 801 791 805 796 779 772 776 760 754 760 751 756 760 760 761